CFC3436 LDZA-LMML

Flight info

Callsign CFC3436
Flight time 1h 37m
Altitude 36000
Route NIVES DCT KOREX DCT DIGOT DCT VAPUP DCT EKMOT DCT IPKAM DCT PELEN DCT OBAXU DCT NELDA DCT DIRKA N982 GZO
Aircraft A332/H-SDE3GHIJ2J3J5M1RVWXY/LB2D1

Departure

Time 2026-05-07 22:08
Airport Zagreb Franjo Tuđman International Airport (LDZA)

Arrival

Time 2026-05-07 23:46
Airport Malta International Airport (LMML)
Time Latitude Longitude Altitude Speed Heading
2026-05-07 21:56 45.73641 16.06419 363 ft 0 kts 137°
2026-05-07 21:58 45.73647 16.06411 362 ft 2 kts 133°
2026-05-07 21:59 45.73658 16.06391 365 ft 2 kts 122°
2026-05-07 21:59 45.73665 16.06371 363 ft 2 kts 105°
2026-05-07 21:59 45.73667 16.06349 363 ft 2 kts 84°
2026-05-07 21:59 45.73663 16.06328 364 ft 2 kts 65°
2026-05-07 22:00 45.73656 16.06309 363 ft 2 kts 53°
2026-05-07 22:00 45.73650 16.06298 363 ft 1 kts 49°
2026-05-07 22:00 45.73644 16.06290 363 ft 1 kts 47°
2026-05-07 22:00 45.73640 16.06283 364 ft 0 kts 46°
2026-05-07 22:01 45.73645 16.06290 365 ft 2 kts 46°
2026-05-07 22:02 45.73657 16.06308 372 ft 4 kts 45°
2026-05-07 22:02 45.73681 16.06344 363 ft 7 kts 45°
2026-05-07 22:02 45.73721 16.06402 365 ft 10 kts 45°
2026-05-07 22:02 45.73774 16.06478 370 ft 11 kts 45°
2026-05-07 22:03 45.73833 16.06566 369 ft 14 kts 45°
2026-05-07 22:03 45.73908 16.06675 366 ft 17 kts 45°
2026-05-07 22:03 45.73989 16.06798 365 ft 17 kts 47°
2026-05-07 22:03 45.74066 16.06931 367 ft 18 kts 48°
2026-05-07 22:04 45.74147 16.07052 368 ft 16 kts 44°
2026-05-07 22:04 45.74227 16.07166 368 ft 17 kts 46°
2026-05-07 22:04 45.74309 16.07288 369 ft 17 kts 46°
2026-05-07 22:04 45.74395 16.07418 359 ft 20 kts 46°
2026-05-07 22:05 45.74493 16.07566 366 ft 21 kts 46°
2026-05-07 22:05 45.74598 16.07726 365 ft 23 kts 46°
2026-05-07 22:05 45.74705 16.07887 366 ft 22 kts 46°
2026-05-07 22:05 45.74789 16.08015 360 ft 11 kts 46°
2026-05-07 22:06 45.74849 16.08058 365 ft 9 kts 351°
2026-05-07 22:06 45.74887 16.08023 368 ft 4 kts 319°
2026-05-07 22:06 45.74891 16.08019 363 ft 0 kts 319°
2026-05-07 22:06 45.74892 16.08017 365 ft 1 kts 318°
2026-05-07 22:07 45.74926 16.07973 371 ft 9 kts 318°
2026-05-07 22:07 45.74957 16.07912 372 ft 6 kts 281°
2026-05-07 22:07 45.74939 16.07871 364 ft 6 kts 231°
2026-05-07 22:07 45.74828 16.07695 370 ft 57 kts 227°
2026-05-07 22:08 45.74361 16.07008 367 ft 134 kts 226°
2026-05-07 22:08 45.73579 16.05855 754 ft 172 kts 225°
2026-05-07 22:08 45.72673 16.04641 1673 ft 195 kts 223°
2026-05-07 22:08 45.71674 16.03174 1981 ft 216 kts 229°
2026-05-07 22:09 45.70635 16.01506 2217 ft 233 kts 230°
2026-05-07 22:09 45.69516 15.99738 2560 ft 244 kts 230°
2026-05-07 22:09 45.68372 15.97955 3180 ft 242 kts 228°
2026-05-07 22:09 45.67241 15.96218 3827 ft 238 kts 227°
2026-05-07 22:10 45.65959 15.94679 4240 ft 246 kts 212°
2026-05-07 22:10 45.64307 15.93874 4674 ft 257 kts 192°
2026-05-07 22:10 45.62517 15.93647 5145 ft 261 kts 186°
2026-05-07 22:10 45.60689 15.93528 5601 ft 265 kts 186°
2026-05-07 22:11 45.58837 15.93418 6049 ft 268 kts 185°
2026-05-07 22:11 45.56966 15.93296 6526 ft 271 kts 185°
2026-05-07 22:11 45.55080 15.93168 7017 ft 273 kts 185°
2026-05-07 22:11 45.53180 15.93030 7490 ft 276 kts 185°
2026-05-07 22:12 45.51263 15.92890 8000 ft 277 kts 185°
2026-05-07 22:12 45.49333 15.92748 8497 ft 279 kts 185°
2026-05-07 22:12 45.47389 15.92603 8974 ft 282 kts 185°
2026-05-07 22:12 45.45426 15.92458 9445 ft 284 kts 185°
2026-05-07 22:13 45.43452 15.92311 9901 ft 286 kts 185°
2026-05-07 22:13 45.41454 15.92161 10283 ft 292 kts 185°
2026-05-07 22:13 45.39394 15.92006 10471 ft 303 kts 185°
2026-05-07 22:13 45.37254 15.91845 10637 ft 314 kts 185°
2026-05-07 22:14 45.35038 15.91679 10813 ft 325 kts 185°
2026-05-07 22:14 45.32747 15.91509 10975 ft 336 kts 185°
2026-05-07 22:14 45.30389 15.91333 11141 ft 345 kts 185°
2026-05-07 22:14 45.27978 15.91155 11432 ft 350 kts 185°
2026-05-07 22:15 45.25543 15.90976 11794 ft 352 kts 185°
2026-05-07 22:15 45.23095 15.90776 12177 ft 354 kts 187°
2026-05-07 22:15 45.20657 15.90328 12555 ft 354 kts 192°
2026-05-07 22:15 45.18249 15.89678 12963 ft 354 kts 194°
2026-05-07 22:16 45.15849 15.88923 13344 ft 355 kts 195°
2026-05-07 22:16 45.13447 15.88129 13717 ft 356 kts 195°
2026-05-07 22:16 45.11038 15.87334 14099 ft 357 kts 195°
2026-05-07 22:16 45.08620 15.86548 14461 ft 358 kts 195°
2026-05-07 22:17 45.06188 15.85776 14823 ft 360 kts 195°
2026-05-07 22:17 45.03743 15.85017 15194 ft 361 kts 195°
2026-05-07 22:17 45.01292 15.84264 15572 ft 362 kts 194°
2026-05-07 22:17 44.98831 15.83515 15908 ft 363 kts 195°
2026-05-07 22:18 44.96363 15.82767 16268 ft 364 kts 195°
2026-05-07 22:18 44.91394 15.81255 16916 ft 367 kts 195°
2026-05-07 22:18 44.88896 15.80494 17234 ft 369 kts 195°
2026-05-07 22:19 44.86388 15.79731 17531 ft 370 kts 195°
2026-05-07 22:19 44.83871 15.78964 17817 ft 372 kts 195°
2026-05-07 22:19 44.81345 15.78197 18123 ft 373 kts 195°
2026-05-07 22:19 44.78810 15.77428 18361 ft 374 kts 195°
2026-05-07 22:20 44.76262 15.76674 18643 ft 375 kts 194°
2026-05-07 22:20 44.73697 15.75963 18929 ft 378 kts 194°
2026-05-07 22:20 44.71116 15.75273 19208 ft 379 kts 194°
2026-05-07 22:20 44.68524 15.74592 19473 ft 380 kts 194°
2026-05-07 22:21 44.65925 15.73908 19723 ft 382 kts 194°
2026-05-07 22:21 44.63319 15.73220 19998 ft 383 kts 194°
2026-05-07 22:21 44.60703 15.72529 20266 ft 384 kts 194°
2026-05-07 22:21 44.58081 15.71837 20517 ft 385 kts 194°
2026-05-07 22:22 44.55448 15.71138 20740 ft 387 kts 194°
2026-05-07 22:22 44.52806 15.70435 20967 ft 388 kts 194°
2026-05-07 22:22 44.50156 15.69731 21202 ft 389 kts 194°
2026-05-07 22:22 44.47497 15.69025 21430 ft 391 kts 194°
2026-05-07 22:23 44.44833 15.68308 21720 ft 391 kts 194°
2026-05-07 22:23 44.42161 15.67598 21929 ft 392 kts 194°
2026-05-07 22:23 44.39481 15.66888 22156 ft 393 kts 195°
2026-05-07 22:23 44.36811 15.66076 22365 ft 394 kts 197°
2026-05-07 22:24 44.34153 15.65170 22583 ft 394 kts 198°
2026-05-07 22:24 44.31500 15.64216 22768 ft 395 kts 198°
2026-05-07 22:24 44.28842 15.63245 22952 ft 396 kts 198°
2026-05-07 22:24 44.26182 15.62276 23144 ft 397 kts 198°
2026-05-07 22:25 44.23513 15.61300 23338 ft 398 kts 198°
2026-05-07 22:25 44.20831 15.60339 23562 ft 399 kts 198°
2026-05-07 22:25 44.18138 15.59387 23778 ft 400 kts 198°
2026-05-07 22:25 44.15440 15.58441 23966 ft 401 kts 198°
2026-05-07 22:26 44.12743 15.57498 24174 ft 401 kts 198°
2026-05-07 22:26 44.10037 15.56555 24269 ft 403 kts 198°
2026-05-07 22:26 44.07316 15.55603 24451 ft 405 kts 198°
2026-05-07 22:26 44.04589 15.54649 24627 ft 406 kts 198°
2026-05-07 22:27 44.01851 15.53692 24819 ft 407 kts 198°
2026-05-07 22:27 43.99108 15.52733 24992 ft 408 kts 198°
2026-05-07 22:27 43.96356 15.51772 25140 ft 410 kts 199°
2026-05-07 22:27 43.93589 15.50804 25263 ft 412 kts 198°
2026-05-07 22:28 43.90812 15.49835 25426 ft 413 kts 198°
2026-05-07 22:28 43.88023 15.48862 25590 ft 415 kts 199°
2026-05-07 22:28 43.85228 15.47889 25772 ft 416 kts 199°
2026-05-07 22:28 43.82425 15.46914 25932 ft 417 kts 199°
2026-05-07 22:29 43.79612 15.45937 26081 ft 418 kts 199°
2026-05-07 22:29 43.76787 15.44956 26238 ft 420 kts 199°
2026-05-07 22:29 43.73955 15.43973 26403 ft 421 kts 199°
2026-05-07 22:29 43.71113 15.42989 26562 ft 423 kts 199°
2026-05-07 22:30 43.68264 15.42003 26716 ft 424 kts 199°
2026-05-07 22:30 43.65411 15.41018 26886 ft 424 kts 199°
2026-05-07 22:30 43.62554 15.40032 27052 ft 424 kts 199°
2026-05-07 22:30 43.59693 15.39045 27232 ft 425 kts 199°
2026-05-07 22:31 43.56817 15.38054 27184 ft 428 kts 199°
2026-05-07 22:31 43.53963 15.37075 27079 ft 418 kts 199°
2026-05-07 22:31 43.51182 15.36127 27072 ft 408 kts 199°
2026-05-07 22:31 43.48444 15.35191 26929 ft 403 kts 199°
2026-05-07 22:32 43.45738 15.34263 26440 ft 401 kts 199°
2026-05-07 22:32 43.43053 15.33338 26126 ft 399 kts 199°
2026-05-07 22:32 43.40348 15.32404 26067 ft 404 kts 199°
2026-05-07 22:32 43.37607 15.31457 26061 ft 410 kts 199°
2026-05-07 22:33 43.34824 15.30498 26048 ft 416 kts 199°
2026-05-07 22:33 43.32002 15.29530 26058 ft 422 kts 199°
2026-05-07 22:33 43.29150 15.28554 26044 ft 427 kts 199°
2026-05-07 22:33 43.26254 15.27566 26040 ft 432 kts 198°
2026-05-07 22:34 43.23324 15.26568 26048 ft 437 kts 198°
2026-05-07 22:34 43.20361 15.25560 26047 ft 442 kts 198°
2026-05-07 22:34 43.17379 15.24547 26045 ft 442 kts 198°
2026-05-07 22:34 43.14402 15.23540 26046 ft 441 kts 198°
2026-05-07 22:35 43.11431 15.22535 26046 ft 440 kts 198°
2026-05-07 22:35 43.08462 15.21530 26038 ft 441 kts 198°
2026-05-07 22:35 43.05489 15.20532 26038 ft 441 kts 198°
2026-05-07 22:35 43.02498 15.19589 26036 ft 443 kts 197°
2026-05-07 22:36 42.99496 15.18688 26033 ft 443 kts 197°
2026-05-07 22:36 42.96489 15.17811 26039 ft 443 kts 196°
2026-05-07 22:36 42.93477 15.16938 26039 ft 444 kts 196°
2026-05-07 22:36 42.90465 15.16063 26039 ft 443 kts 197°
2026-05-07 22:37 42.87454 15.15184 26039 ft 443 kts 197°
2026-05-07 22:37 42.84442 15.14302 26037 ft 444 kts 196°
2026-05-07 22:37 42.81430 15.13417 26032 ft 444 kts 197°
2026-05-07 22:37 42.78417 15.12531 26030 ft 444 kts 197°
2026-05-07 22:38 42.75403 15.11644 26024 ft 444 kts 197°
2026-05-07 22:38 42.72387 15.10758 26027 ft 445 kts 197°
2026-05-07 22:38 42.69368 15.09872 26027 ft 445 kts 197°
2026-05-07 22:38 42.66349 15.08987 26027 ft 445 kts 197°
2026-05-07 22:39 42.63329 15.08102 26027 ft 445 kts 196°
2026-05-07 22:39 42.60309 15.07219 26025 ft 445 kts 196°
2026-05-07 22:39 42.57294 15.06334 26026 ft 444 kts 196°
2026-05-07 22:39 42.54274 15.05451 26027 ft 446 kts 196°
2026-05-07 22:40 42.51249 15.04567 26027 ft 446 kts 196°
2026-05-07 22:40 42.48222 15.03687 26027 ft 446 kts 196°
2026-05-07 22:40 42.45194 15.02807 26023 ft 446 kts 196°
2026-05-07 22:40 42.42165 15.01929 26017 ft 446 kts 196°
2026-05-07 22:41 42.39135 15.01050 26014 ft 446 kts 196°
2026-05-07 22:41 42.36105 15.00170 26008 ft 446 kts 196°
2026-05-07 22:41 42.33074 14.99293 26007 ft 447 kts 196°
2026-05-07 22:41 42.30041 14.98415 26008 ft 447 kts 196°
2026-05-07 22:42 42.27008 14.97538 26008 ft 447 kts 196°
2026-05-07 22:42 42.23976 14.96660 26008 ft 447 kts 196°
2026-05-07 22:42 42.20942 14.95784 26008 ft 447 kts 196°
2026-05-07 22:42 42.17908 14.94909 26008 ft 447 kts 196°
2026-05-07 22:43 42.14874 14.94035 26007 ft 447 kts 196°
2026-05-07 22:43 42.11841 14.93164 26007 ft 447 kts 196°
2026-05-07 22:43 42.08808 14.92291 26000 ft 447 kts 196°
2026-05-07 22:43 42.05772 14.91418 25999 ft 447 kts 196°
2026-05-07 22:44 42.02735 14.90546 25999 ft 447 kts 196°
2026-05-07 22:44 41.99697 14.89674 25998 ft 447 kts 196°
2026-05-07 22:44 41.96660 14.88804 25999 ft 447 kts 196°
2026-05-07 22:44 41.93620 14.87934 25999 ft 448 kts 196°
2026-05-07 22:45 41.90586 14.87066 25999 ft 448 kts 196°
2026-05-07 22:45 41.87537 14.86193 25994 ft 448 kts 195°
2026-05-07 22:45 41.84501 14.85329 25989 ft 448 kts 196°
2026-05-07 22:45 41.81458 14.84463 25992 ft 448 kts 196°
2026-05-07 22:46 41.78416 14.83596 25990 ft 448 kts 196°
2026-05-07 22:46 41.75373 14.82729 25990 ft 448 kts 196°
2026-05-07 22:46 41.72330 14.81863 25989 ft 448 kts 196°
2026-05-07 22:46 41.69289 14.80999 25988 ft 448 kts 196°
2026-05-07 22:47 41.66255 14.80104 25979 ft 447 kts 197°
2026-05-07 22:47 41.63235 14.79170 25989 ft 447 kts 197°
2026-05-07 22:47 41.60215 14.78213 25989 ft 447 kts 197°
2026-05-07 22:47 41.57198 14.77252 25989 ft 446 kts 197°
2026-05-07 22:48 41.54185 14.76294 25992 ft 447 kts 197°
2026-05-07 22:48 41.51166 14.75340 25989 ft 446 kts 197°
2026-05-07 22:48 41.48146 14.74389 25990 ft 446 kts 197°
2026-05-07 22:48 41.45133 14.73445 25992 ft 447 kts 197°
2026-05-07 22:49 41.42113 14.72506 25989 ft 447 kts 197°
2026-05-07 22:49 41.39093 14.71564 25988 ft 446 kts 197°
2026-05-07 22:49 41.36073 14.70621 25981 ft 446 kts 197°
2026-05-07 22:49 41.33060 14.69681 25980 ft 446 kts 197°
2026-05-07 22:50 41.30045 14.68741 25979 ft 446 kts 197°
2026-05-07 22:50 41.27032 14.67803 25978 ft 445 kts 197°
2026-05-07 22:50 41.24017 14.66867 25972 ft 445 kts 197°
2026-05-07 22:50 41.21005 14.65941 25971 ft 446 kts 195°
2026-05-07 22:51 41.17926 14.65365 25971 ft 449 kts 189°
2026-05-07 22:51 41.14814 14.65002 25965 ft 450 kts 188°
2026-05-07 22:51 41.11694 14.64726 25962 ft 451 kts 187°
2026-05-07 22:51 41.08568 14.64497 25943 ft 451 kts 187°
2026-05-07 22:52 41.05444 14.64287 25926 ft 451 kts 187°
2026-05-07 22:52 41.02320 14.64081 25926 ft 450 kts 187°
2026-05-07 22:52 40.99200 14.63871 25931 ft 450 kts 187°
2026-05-07 22:52 40.96079 14.63656 25932 ft 450 kts 187°
2026-05-07 22:53 40.92961 14.63437 25924 ft 450 kts 187°
2026-05-07 22:53 40.89843 14.63214 25923 ft 450 kts 187°
2026-05-07 22:53 40.86723 14.62989 25925 ft 450 kts 187°
2026-05-07 22:53 40.83606 14.62764 25926 ft 450 kts 187°
2026-05-07 22:54 40.80491 14.62537 25927 ft 449 kts 187°
2026-05-07 22:54 40.77377 14.62312 25925 ft 449 kts 187°
2026-05-07 22:54 40.74264 14.62087 25924 ft 449 kts 187°
2026-05-07 22:54 40.71151 14.61864 25923 ft 449 kts 187°
2026-05-07 22:55 40.68039 14.61641 25923 ft 449 kts 187°
2026-05-07 22:55 40.64927 14.61417 25924 ft 448 kts 187°
2026-05-07 22:55 40.61822 14.61193 25923 ft 448 kts 187°
2026-05-07 22:55 40.58719 14.60971 25921 ft 447 kts 187°
2026-05-07 22:56 40.55617 14.60752 25918 ft 447 kts 187°
2026-05-07 22:56 40.52517 14.60532 25913 ft 448 kts 187°
2026-05-07 22:56 40.49413 14.60310 25914 ft 448 kts 187°
2026-05-07 22:56 40.46309 14.60088 25914 ft 448 kts 187°
2026-05-07 22:57 40.43206 14.59866 25913 ft 447 kts 187°
2026-05-07 22:57 40.40106 14.59645 25918 ft 447 kts 187°
2026-05-07 22:57 40.37004 14.59425 25917 ft 447 kts 187°
2026-05-07 22:57 40.33906 14.59206 25917 ft 447 kts 187°
2026-05-07 22:58 40.30808 14.58987 25915 ft 447 kts 187°
2026-05-07 22:58 40.27710 14.58767 25913 ft 447 kts 187°
2026-05-07 22:58 40.24613 14.58547 25919 ft 446 kts 187°
2026-05-07 22:58 40.21517 14.58327 25914 ft 446 kts 187°
2026-05-07 22:59 40.18422 14.58108 25912 ft 446 kts 187°
2026-05-07 22:59 40.15328 14.57887 25914 ft 446 kts 187°
2026-05-07 22:59 40.12232 14.57668 25920 ft 446 kts 187°
2026-05-07 22:59 40.09136 14.57450 25922 ft 446 kts 187°
2026-05-07 23:00 40.06040 14.57233 25926 ft 446 kts 187°
2026-05-07 23:00 40.02946 14.57015 25925 ft 446 kts 187°
2026-05-07 23:00 39.99852 14.56796 25927 ft 446 kts 187°
2026-05-07 23:00 39.96758 14.56578 25927 ft 446 kts 187°
2026-05-07 23:01 39.93671 14.56362 25923 ft 445 kts 187°
2026-05-07 23:01 39.90588 14.56147 25928 ft 444 kts 187°
2026-05-07 23:01 39.87509 14.55933 25926 ft 444 kts 187°
2026-05-07 23:01 39.84429 14.55718 25928 ft 444 kts 187°
2026-05-07 23:02 39.81347 14.55502 25934 ft 444 kts 187°
2026-05-07 23:02 39.78267 14.55287 25933 ft 444 kts 187°
2026-05-07 23:02 39.75187 14.55071 25932 ft 444 kts 187°
2026-05-07 23:02 39.72108 14.54855 25935 ft 444 kts 187°
2026-05-07 23:03 39.69029 14.54640 25933 ft 444 kts 187°
2026-05-07 23:03 39.65950 14.54426 25933 ft 444 kts 187°
2026-05-07 23:03 39.62871 14.54213 25930 ft 444 kts 187°
2026-05-07 23:03 39.59794 14.53999 25923 ft 444 kts 187°
2026-05-07 23:04 39.56719 14.53787 25916 ft 443 kts 187°
2026-05-07 23:04 39.53643 14.53574 25913 ft 444 kts 187°
2026-05-07 23:04 39.50569 14.53362 25913 ft 443 kts 187°
2026-05-07 23:04 39.47494 14.53148 25913 ft 443 kts 187°
2026-05-07 23:05 39.44419 14.52934 25917 ft 444 kts 187°
2026-05-07 23:05 39.41343 14.52722 25918 ft 444 kts 187°
2026-05-07 23:05 39.38268 14.52510 25913 ft 443 kts 187°
2026-05-07 23:05 39.35195 14.52298 25918 ft 443 kts 188°
2026-05-07 23:06 39.32129 14.52086 25920 ft 443 kts 188°
2026-05-07 23:06 39.29057 14.51874 25913 ft 443 kts 188°
2026-05-07 23:06 39.25986 14.51663 25920 ft 443 kts 188°
2026-05-07 23:06 39.22917 14.51453 25916 ft 443 kts 188°
2026-05-07 23:07 39.19848 14.51243 25919 ft 443 kts 188°
2026-05-07 23:07 39.16778 14.51032 25912 ft 443 kts 188°
2026-05-07 23:07 39.13709 14.50821 25915 ft 443 kts 188°
2026-05-07 23:07 39.10641 14.50611 25919 ft 442 kts 188°
2026-05-07 23:08 39.07574 14.50402 25917 ft 442 kts 188°
2026-05-07 23:08 39.04509 14.50193 25916 ft 442 kts 188°
2026-05-07 23:08 39.01446 14.49984 25918 ft 442 kts 188°
2026-05-07 23:08 38.98384 14.49775 25912 ft 441 kts 188°
2026-05-07 23:09 38.95326 14.49567 25917 ft 441 kts 188°
2026-05-07 23:09 38.92269 14.49359 25918 ft 441 kts 188°
2026-05-07 23:09 38.89211 14.49150 25915 ft 440 kts 188°
2026-05-07 23:09 38.86158 14.48942 25916 ft 440 kts 188°
2026-05-07 23:10 38.83106 14.48734 25917 ft 440 kts 188°
2026-05-07 23:10 38.80058 14.48528 25916 ft 439 kts 189°
2026-05-07 23:10 38.77011 14.48322 25916 ft 439 kts 189°
2026-05-07 23:10 38.73972 14.48115 25915 ft 439 kts 189°
2026-05-07 23:11 38.70929 14.47909 25918 ft 439 kts 189°
2026-05-07 23:11 38.67885 14.47704 25915 ft 439 kts 189°
2026-05-07 23:11 38.64844 14.47499 25916 ft 438 kts 189°
2026-05-07 23:11 38.61804 14.47293 25915 ft 438 kts 189°
2026-05-07 23:12 38.58767 14.47087 25922 ft 438 kts 189°
2026-05-07 23:12 38.55732 14.46882 25927 ft 437 kts 189°
2026-05-07 23:12 38.52700 14.46677 25926 ft 437 kts 189°
2026-05-07 23:12 38.49669 14.46473 25927 ft 437 kts 189°
2026-05-07 23:13 38.46642 14.46270 25925 ft 436 kts 189°
2026-05-07 23:13 38.43617 14.46066 25922 ft 436 kts 189°
2026-05-07 23:13 38.40594 14.45863 25927 ft 436 kts 189°
2026-05-07 23:13 38.37573 14.45660 25927 ft 436 kts 189°
2026-05-07 23:14 38.34552 14.45457 25927 ft 436 kts 189°
2026-05-07 23:14 38.31526 14.45299 25931 ft 436 kts 188°
2026-05-07 23:14 38.28493 14.45198 25933 ft 437 kts 188°
2026-05-07 23:14 38.25458 14.45127 25933 ft 437 kts 188°
2026-05-07 23:15 38.22425 14.45067 25933 ft 437 kts 188°
2026-05-07 23:15 38.19393 14.45005 25943 ft 437 kts 188°
2026-05-07 23:15 38.16365 14.44939 25943 ft 436 kts 188°
2026-05-07 23:15 38.13342 14.44868 25934 ft 435 kts 188°
2026-05-07 23:16 38.10320 14.44793 25934 ft 435 kts 188°
2026-05-07 23:16 38.07299 14.44717 25942 ft 435 kts 188°
2026-05-07 23:16 38.04277 14.44640 25937 ft 435 kts 188°
2026-05-07 23:16 38.01257 14.44563 25937 ft 435 kts 188°
2026-05-07 23:17 37.98235 14.44485 25934 ft 435 kts 188°
2026-05-07 23:17 37.95216 14.44408 25933 ft 435 kts 188°
2026-05-07 23:17 37.92193 14.44330 25935 ft 436 kts 188°
2026-05-07 23:17 37.89167 14.44252 25936 ft 436 kts 188°
2026-05-07 23:18 37.86142 14.44174 25938 ft 436 kts 188°
2026-05-07 23:18 37.83118 14.44098 25943 ft 435 kts 188°
2026-05-07 23:18 37.80093 14.44022 25926 ft 436 kts 188°
2026-05-07 23:18 37.77067 14.43945 25921 ft 436 kts 188°
2026-05-07 23:19 37.74041 14.43869 25927 ft 436 kts 188°
2026-05-07 23:19 37.71015 14.43793 25921 ft 436 kts 188°
2026-05-07 23:19 37.67996 14.43718 25934 ft 436 kts 188°
2026-05-07 23:19 37.64971 14.43643 25932 ft 436 kts 188°
2026-05-07 23:20 37.61948 14.43568 25934 ft 435 kts 188°
2026-05-07 23:20 37.58921 14.43493 25931 ft 436 kts 188°
2026-05-07 23:20 37.55889 14.43416 25932 ft 437 kts 188°
2026-05-07 23:20 37.52853 14.43340 25932 ft 437 kts 188°
2026-05-07 23:21 37.49811 14.43263 25934 ft 437 kts 188°
2026-05-07 23:21 37.46772 14.43187 25931 ft 438 kts 188°
2026-05-07 23:21 37.43732 14.43111 25933 ft 438 kts 188°
2026-05-07 23:21 37.40697 14.43037 25933 ft 437 kts 188°
2026-05-07 23:22 37.37663 14.42963 25936 ft 437 kts 188°
2026-05-07 23:22 37.34627 14.42887 25938 ft 438 kts 188°
2026-05-07 23:22 37.31590 14.42810 25933 ft 438 kts 188°
2026-05-07 23:22 37.28545 14.42732 25934 ft 439 kts 188°
2026-05-07 23:23 37.25495 14.42656 25934 ft 440 kts 188°
2026-05-07 23:23 37.22444 14.42581 25933 ft 439 kts 188°
2026-05-07 23:23 37.19399 14.42443 25933 ft 438 kts 189°
2026-05-07 23:23 37.16369 14.42203 25933 ft 437 kts 191°
2026-05-07 23:24 37.13344 14.41910 25936 ft 437 kts 191°
2026-05-07 23:24 37.10321 14.41597 25935 ft 437 kts 191°
2026-05-07 23:24 37.07295 14.41283 25934 ft 438 kts 191°
2026-05-07 23:24 37.04266 14.40977 25935 ft 438 kts 191°
2026-05-07 23:25 37.01233 14.40680 25934 ft 438 kts 191°
2026-05-07 23:25 36.98201 14.40390 25934 ft 438 kts 191°
2026-05-07 23:25 36.95163 14.40104 25934 ft 439 kts 191°
2026-05-07 23:25 36.92127 14.39821 25935 ft 438 kts 191°
2026-05-07 23:26 36.89090 14.39536 25935 ft 439 kts 191°
2026-05-07 23:26 36.86074 14.39121 25933 ft 435 kts 195°
2026-05-07 23:26 36.83090 14.38532 25934 ft 435 kts 195°
2026-05-07 23:26 36.80116 14.37894 25935 ft 435 kts 196°
2026-05-07 23:27 36.74184 14.36539 25934 ft 434 kts 197°
2026-05-07 23:27 36.71221 14.35851 25935 ft 434 kts 196°
2026-05-07 23:27 36.68256 14.35164 25934 ft 435 kts 196°
2026-05-07 23:28 36.65285 14.34480 25934 ft 435 kts 196°
2026-05-07 23:28 36.62314 14.33799 25934 ft 435 kts 196°
2026-05-07 23:28 36.59343 14.33121 25934 ft 435 kts 196°
2026-05-07 23:28 36.56372 14.32445 25933 ft 435 kts 196°
2026-05-07 23:29 36.53392 14.31804 25935 ft 438 kts 193°
2026-05-07 23:29 36.50318 14.31845 25864 ft 449 kts 178°
2026-05-07 23:29 36.47312 14.32902 25675 ft 450 kts 166°
2026-05-07 23:29 36.44480 14.34493 25301 ft 445 kts 160°
2026-05-07 23:30 36.41810 14.36314 24795 ft 431 kts 156°
2026-05-07 23:30 36.39294 14.38183 24285 ft 414 kts 155°
2026-05-07 23:30 36.36886 14.40007 23778 ft 399 kts 156°
2026-05-07 23:30 36.34558 14.41752 23266 ft 385 kts 156°
2026-05-07 23:31 36.32241 14.43210 22773 ft 362 kts 171°
2026-05-07 23:31 36.29866 14.43638 22270 ft 335 kts 192°
2026-05-07 23:31 36.27689 14.42987 21774 ft 316 kts 211°
2026-05-07 23:31 36.25775 14.41730 21277 ft 311 kts 216°
2026-05-07 23:32 36.23919 14.40383 20774 ft 308 kts 217°
2026-05-07 23:32 36.22079 14.39047 20276 ft 306 kts 217°
2026-05-07 23:32 36.20298 14.37678 19780 ft 298 kts 223°
2026-05-07 23:32 36.18896 14.35896 19278 ft 284 kts 242°
2026-05-07 23:33 36.18278 14.33640 18780 ft 278 kts 264°
2026-05-07 23:33 36.18553 14.31287 18269 ft 283 kts 286°
2026-05-07 23:33 36.19612 14.29210 17691 ft 290 kts 301°
2026-05-07 23:33 36.20952 14.27344 17094 ft 290 kts 303°
2026-05-07 23:34 36.22326 14.25521 16491 ft 290 kts 303°
2026-05-07 23:34 36.23699 14.23710 15892 ft 287 kts 303°
2026-05-07 23:34 36.25055 14.21939 15292 ft 281 kts 304°
2026-05-07 23:34 36.26395 14.20203 14690 ft 277 kts 303°
2026-05-07 23:35 36.27729 14.18489 14092 ft 277 kts 303°
2026-05-07 23:35 36.29057 14.16775 13491 ft 275 kts 301°
2026-05-07 23:35 36.29999 14.14836 12890 ft 254 kts 277°
2026-05-07 23:35 36.30070 14.12751 12290 ft 238 kts 252°
2026-05-07 23:36 36.29302 14.11009 11685 ft 232 kts 226°
2026-05-07 23:36 36.28012 14.09819 11090 ft 232 kts 216°
2026-05-07 23:36 36.26616 14.08817 10488 ft 233 kts 214°
2026-05-07 23:36 36.25199 14.07830 9880 ft 236 kts 214°
2026-05-07 23:37 36.23760 14.06828 9288 ft 240 kts 214°
2026-05-07 23:37 36.22288 14.05810 8692 ft 246 kts 214°
2026-05-07 23:37 36.20709 14.04954 8089 ft 255 kts 196°
2026-05-07 23:37 36.18908 14.05046 7493 ft 269 kts 168°
2026-05-07 23:38 36.17258 14.06208 6907 ft 282 kts 141°
2026-05-07 23:38 36.15972 14.08036 6444 ft 282 kts 130°
2026-05-07 23:38 36.14873 14.10035 5995 ft 281 kts 127°
2026-05-07 23:38 36.13817 14.12044 5574 ft 278 kts 126°
2026-05-07 23:39 36.12767 14.14033 5179 ft 276 kts 127°
2026-05-07 23:39 36.11709 14.16018 4798 ft 278 kts 127°
2026-05-07 23:39 36.10653 14.17984 4646 ft 272 kts 127°
2026-05-07 23:39 36.09585 14.19900 4570 ft 270 kts 133°
2026-05-07 23:40 36.08260 14.21494 4492 ft 263 kts 144°
2026-05-07 23:40 36.06864 14.22867 4430 ft 250 kts 146°
2026-05-07 23:40 36.05522 14.24153 4423 ft 238 kts 147°
2026-05-07 23:40 36.04270 14.25407 4410 ft 229 kts 143°
2026-05-07 23:41 36.03091 14.26721 4403 ft 227 kts 141°
2026-05-07 23:41 36.01986 14.28038 4444 ft 217 kts 141°
2026-05-07 23:41 36.00818 14.29187 4452 ft 215 kts 147°
2026-05-07 23:41 35.99695 14.30401 4289 ft 214 kts 140°
2026-05-07 23:42 35.98646 14.31695 3975 ft 213 kts 139°
2026-05-07 23:42 35.97600 14.32999 3614 ft 215 kts 138°
2026-05-07 23:42 35.96545 14.34311 3276 ft 216 kts 138°
2026-05-07 23:42 35.95492 14.35624 2980 ft 215 kts 137°
2026-05-07 23:43 35.94447 14.36926 2695 ft 212 kts 137°
2026-05-07 23:43 35.93421 14.38206 2420 ft 208 kts 138°
2026-05-07 23:43 35.92413 14.39461 2148 ft 203 kts 137°
2026-05-07 23:43 35.91437 14.40676 1874 ft 197 kts 137°
2026-05-07 23:44 35.90497 14.41848 1627 ft 188 kts 136°
2026-05-07 23:44 35.89613 14.42948 1360 ft 175 kts 134°
2026-05-07 23:44 35.88816 14.43966 1197 ft 158 kts 131°
2026-05-07 23:44 35.88102 14.44916 1006 ft 146 kts 137°
2026-05-07 23:45 35.87369 14.45800 799 ft 150 kts 136°
2026-05-07 23:45 35.86619 14.46703 588 ft 150 kts 135°
2026-05-07 23:45 35.85898 14.47584 373 ft 144 kts 136°
2026-05-07 23:45 35.85207 14.48426 272 ft 127 kts 135°
2026-05-07 23:46 35.84883 14.48826 265 ft 19 kts 135°
2026-05-07 23:46 35.84791 14.48945 265 ft 20 kts 132°
2026-05-07 23:46 35.84695 14.49069 263 ft 21 kts 135°
2026-05-07 23:46 35.84592 14.49196 264 ft 21 kts 135°
2026-05-07 23:47 35.84494 14.49338 263 ft 23 kts 118°
2026-05-07 23:47 35.84446 14.49519 262 ft 19 kts 87°
2026-05-07 23:47 35.84530 14.49548 261 ft 14 kts 334°
2026-05-07 23:47 35.84607 14.49465 262 ft 13 kts 317°
2026-05-07 23:48 35.84643 14.49459 262 ft 2 kts 49°
2026-05-07 23:48 35.84659 14.49471 262 ft 4 kts 40°
2026-05-07 23:48 35.84674 14.49492 262 ft 0 kts 46°